When you browse on this site, cookies collect data to enhance your experience and personalize the content and advertising you see.
Visit our Privacy Policy to learn more. By continuing to use the site, you agree to this use of cookies and data.
  • In Portugal
  • List of Countries
  • For 7 days
  • Water Temperature
  • Weather Map
  • Weather Widgets
  • user-avatar
    Login

    Hourly Weather Gjirokaster

    Today, 4 June, Thursday

    Time Temperature Precipitation Wind Pressure Humidity
    00:00 +7°C° 0 mm 1 mps 647 mmHg 72%
    01:00 +6°C° 0 mm 0 mps 647 mmHg 68%
    02:00 +7°C° 0 mm 1 mps 647 mmHg 68%
    03:00 +7°C° 0 mm 1 mps 647 mmHg 68%
    04:00 +7°C° 0 mm 1 mps 647 mmHg 68%
    05:00 +9°C° 0 mm 1 mps 648 mmHg 65%
    06:00 +10°C° 0 mm 1 mps 648 mmHg 62%
    07:00 +12°C° 0 mm 2 mps 649 mmHg 58%
    08:00 +14°C° 0 mm 2 mps 650 mmHg 55%
    09:00 +15°C° 0 mm 2 mps 650 mmHg 52%
    10:00 +16°C° 0 mm 3 mps 651 mmHg 49%
    11:00 +16°C° 0 mm 3 mps 651 mmHg 49%
    12:00 +17°C° 0 mm 3 mps 651 mmHg 48%
    13:00 +17°C° 0 mm 3 mps 651 mmHg 47%
    14:00 +17°C° 0 mm 3 mps 651 mmHg 49%
    15:00 +16°C° 0 mm 3 mps 651 mmHg 50%
    16:00 +16°C° 0 mm 3 mps 650 mmHg 51%
    17:00 +13°C° 0 mm 3 mps 650 mmHg 59%
    18:00 +11°C° 0 mm 3 mps 650 mmHg 66%
    19:00 +9°C° 0 mm 3 mps 649 mmHg 73%
    20:00 +9°C° 0 mm 3 mps 649 mmHg 75%
    21:00 +8°C° 0 mm 3 mps 649 mmHg 77%
    22:00 +7°C° 0 mm 3 mps 649 mmHg 79%
    23:00 +7°C° 0 mm 3 mps 649 mmHg 77%

    Tomorrow, 5 June, Friday

    Time Temperature Precipitation Wind Pressure Humidity
    00:00 +7°C° 0 mm 3 mps 649 mmHg 75%
    01:00 +7°C° 0 mm 3 mps 648 mmHg 74%
    02:00 +7°C° 0 mm 3 mps 648 mmHg 72%
    03:00 +7°C° 0 mm 3 mps 648 mmHg 70%
    04:00 +7°C° 0 mm 3 mps 648 mmHg 68%
    05:00 +9°C° 0 mm 2 mps 648 mmHg 64%
    06:00 +10°C° 0 mm 2 mps 649 mmHg 61%
    07:00 +13°C° 0 mm 2 mps 650 mmHg 57%
    08:00 +14°C° 0 mm 2 mps 650 mmHg 53%
    09:00 +15°C° 0 mm 2 mps 650 mmHg 49%
    10:00 +16°C° 0 mm 2 mps 650 mmHg 45%
    11:00 +17°C° 0 mm 3 mps 650 mmHg 46%
    12:00 +17°C° 0 mm 4 mps 649 mmHg 46%
    13:00 +18°C° 0 mm 4 mps 649 mmHg 47%
    14:00 +18°C° 0 mm 4 mps 649 mmHg 47%
    15:00 +18°C° 0 mm 4 mps 648 mmHg 48%
    16:00 +17°C° 0 mm 4 mps 648 mmHg 48%
    17:00 +16°C° 0 mm 3 mps 647 mmHg 52%
    18:00 +14°C° 0 mm 3 mps 646 mmHg 56%
    19:00 +13°C° 0 mm 2 mps 646 mmHg 60%
    20:00 +13°C° 0.1 mm 2 mps 645 mmHg 61%
    21:00 +13°C° 0.1 mm 2 mps 645 mmHg 62%
    22:00 +13°C° 0.1 mm 2 mps 645 mmHg 63%
    23:00 +12°C° 0 mm 2 mps 644 mmHg 66%

    Day after tomorrow, 6 June, Saturday

    Time Temperature Precipitation Wind Pressure Humidity
    00:00 +12°C° 0 mm 2 mps 644 mmHg 69%
    01:00 +12°C° 0 mm 2 mps 643 mmHg 72%
    02:00 +11°C° 1.3 mm 1 mps 643 mmHg 77%
    03:00 +11°C° 1.3 mm 1 mps 643 mmHg 82%
    04:00 +10°C° 1.3 mm 1 mps 643 mmHg 87%
    05:00 +10°C° 1.5 mm 1 mps 643 mmHg 88%
    06:00 +10°C° 1.5 mm 1 mps 644 mmHg 88%
    07:00 +11°C° 1.5 mm 1 mps 644 mmHg 88%
    08:00 +11°C° 0.5 mm 1 mps 645 mmHg 88%
    09:00 +11°C° 0.5 mm 1 mps 645 mmHg 88%
    10:00 +10°C° 0.5 mm 0 mps 646 mmHg 89%
    11:00 +11°C° 0.2 mm 1 mps 646 mmHg 87%
    12:00 +12°C° 0.2 mm 1 mps 646 mmHg 84%
    13:00 +12°C° 0.2 mm 1 mps 646 mmHg 82%
    14:00 +13°C° 0.2 mm 1 mps 647 mmHg 79%
    15:00 +13°C° 0.2 mm 1 mps 647 mmHg 76%
    16:00 +14°C° 0.2 mm 1 mps 647 mmHg 73%
    17:00 +13°C° 0.2 mm 1 mps 647 mmHg 78%
    18:00 +12°C° 0.2 mm 1 mps 647 mmHg 84%
    19:00 +11°C° 0.2 mm 1 mps 647 mmHg 89%
    20:00 +10°C° 0.1 mm 1 mps 647 mmHg 90%
    21:00 +9°C° 0.1 mm 0 mps 647 mmHg 91%
    22:00 +8°C° 0.1 mm 0 mps 648 mmHg 91%
    23:00 +8°C° 0 mm 0 mps 648 mmHg 91%

    7 June, Sunday

    Time Temperature Precipitation Wind Pressure Humidity
    00:00 +9°C° 0 mm 1 mps 647 mmHg 91%
    01:00 +8°C° 0 mm 1 mps 647 mmHg 91%
    02:00 +8°C° 0 mm 1 mps 647 mmHg 91%
    03:00 +8°C° 0 mm 1 mps 647 mmHg 90%
    04:00 +8°C° 0 mm 1 mps 647 mmHg 90%
    05:00 +10°C° 0 mm 1 mps 648 mmHg 85%
    06:00 +11°C° 0 mm 1 mps 649 mmHg 80%
    07:00 +13°C° 0 mm 1 mps 650 mmHg 75%
    08:00 +14°C° 0 mm 1 mps 650 mmHg 70%
    09:00 +16°C° 0 mm 1 mps 651 mmHg 66%
    10:00 +17°C° 0 mm 2 mps 651 mmHg 62%
    11:00 +17°C° 0 mm 2 mps 651 mmHg 62%
    12:00 +17°C° 0 mm 2 mps 651 mmHg 62%
    13:00 +18°C° 0 mm 2 mps 651 mmHg 62%
    14:00 +17°C° 0 mm 2 mps 651 mmHg 64%
    15:00 +17°C° 0 mm 2 mps 651 mmHg 67%
    16:00 +17°C° 0 mm 2 mps 651 mmHg 69%
    17:00 +15°C° 0 mm 2 mps 650 mmHg 75%
    18:00 +14°C° 0 mm 1 mps 650 mmHg 82%
    19:00 +12°C° 0 mm 1 mps 650 mmHg 88%
    20:00 +12°C° 0 mm 1 mps 650 mmHg 88%
    21:00 +11°C° 0 mm 1 mps 650 mmHg 89%
    22:00 +11°C° 0 mm 1 mps 650 mmHg 89%
    23:00 +11°C° 0 mm 1 mps 650 mmHg 88%

    8 June, Monday

    Time Temperature Precipitation Wind Pressure Humidity
    00:00 +10°C° 0 mm 1 mps 649 mmHg 88%
    01:00 +9°C° 0 mm 0 mps 649 mmHg 87%
    02:00 +10°C° 0 mm 1 mps 649 mmHg 86%
    03:00 +10°C° 0 mm 1 mps 649 mmHg 85%
    04:00 +10°C° 0 mm 1 mps 649 mmHg 85%
    05:00 +11°C° 0 mm 1 mps 649 mmHg 79%
    06:00 +13°C° 0 mm 1 mps 650 mmHg 74%
    07:00 +14°C° 0 mm 0 mps 650 mmHg 69%
    08:00 +15°C° 0 mm 0 mps 651 mmHg 64%
    09:00 +18°C° 0 mm 1 mps 651 mmHg 59%
    10:00 +19°C° 0 mm 1 mps 651 mmHg 54%
    11:00 +20°C° 0 mm 1 mps 651 mmHg 53%
    12:00 +20°C° 0 mm 2 mps 651 mmHg 52%
    13:00 +20°C° 0 mm 2 mps 651 mmHg 51%
    14:00 +20°C° 0 mm 2 mps 651 mmHg 52%
    15:00 +20°C° 0 mm 2 mps 651 mmHg 54%
    16:00 +19°C° 0 mm 2 mps 650 mmHg 55%
    17:00 +17°C° 0.1 mm 2 mps 650 mmHg 62%
    18:00 +16°C° 0.1 mm 1 mps 649 mmHg 69%
    19:00 +14°C° 0.1 mm 1 mps 649 mmHg 76%
    20:00 +13°C° 0.1 mm 1 mps 649 mmHg 75%
    21:00 +13°C° 0.1 mm 1 mps 649 mmHg 74%
    22:00 +12°C° 0.1 mm 1 mps 649 mmHg 72%
    23:00 +12°C° 0 mm 1 mps 649 mmHg 72%

    9 June, Tuesday

    Time Temperature Precipitation Wind Pressure Humidity
    00:00 +12°C° 0 mm 1 mps 649 mmHg 72%
    01:00 +12°C° 0 mm 1 mps 649 mmHg 72%
    02:00 +11°C° 0 mm 1 mps 648 mmHg 72%
    03:00 +11°C° 0 mm 1 mps 648 mmHg 72%
    04:00 +11°C° 0 mm 1 mps 648 mmHg 73%
    05:00 +13°C° 0 mm 1 mps 649 mmHg 69%
    06:00 +14°C° 0 mm 2 mps 649 mmHg 65%
    07:00 +16°C° 0 mm 2 mps 650 mmHg 61%
    08:00 +17°C° 0 mm 2 mps 651 mmHg 56%
    09:00 +18°C° 0 mm 2 mps 651 mmHg 51%
    10:00 +19°C° 0 mm 2 mps 651 mmHg 46%
    11:00 +20°C° 0 mm 2 mps 651 mmHg 47%
    12:00 +20°C° 0 mm 2 mps 651 mmHg 47%
    13:00 +20°C° 0 mm 2 mps 651 mmHg 47%
    14:00 +20°C° 0 mm 2 mps 651 mmHg 50%
    15:00 +19°C° 0 mm 2 mps 651 mmHg 53%
    16:00 +19°C° 0 mm 2 mps 651 mmHg 55%
    17:00 +18°C° 0 mm 1 mps 650 mmHg 63%
    18:00 +15°C° 0 mm 1 mps 650 mmHg 71%
    19:00 +14°C° 0 mm 1 mps 650 mmHg 79%
    20:00 +13°C° 0 mm 1 mps 650 mmHg 81%
    21:00 +12°C° 0 mm 1 mps 650 mmHg 83%
    22:00 +12°C° 0 mm 1 mps 650 mmHg 85%
    23:00 +12°C° 0 mm 1 mps 650 mmHg 84%
    Show more